Stündliche Wetter Aarwangen

Heute, 27 Juli, Dienstag

Zeit Temperatur Niederschläge Wind Luftdruck Luftfeuchtigkeit
00:00 +15°C° 0 mm 1 m/S 719 mmHg 95%
01:00 +15°C° 0 mm 1 m/S 719 mmHg 95%
02:00 +15°C° 0 mm 1 m/S 719 mmHg 95%
03:00 +14°C° 0 mm 1 m/S 719 mmHg 94%
04:00 +14°C° 0 mm 1 m/S 719 mmHg 94%
05:00 +14°C° 0 mm 0 m/S 719 mmHg 94%
06:00 +15°C° 0 mm 0 m/S 719 mmHg 93%
07:00 +15°C° 0 mm 0 m/S 719 mmHg 92%
08:00 +17°C° 0 mm 0 m/S 719 mmHg 84%
09:00 +19°C° 0 mm 0 m/S 719 mmHg 75%
10:00 +23°C° 0 mm 1 m/S 719 mmHg 67%
11:00 +24°C° 0 mm 1 m/S 718 mmHg 63%
12:00 +25°C° 0 mm 1 m/S 718 mmHg 60%
13:00 +26°C° 0 mm 1 m/S 718 mmHg 56%
14:00 +25°C° 0.3 mm 1 m/S 718 mmHg 63%
15:00 +25°C° 0.3 mm 1 m/S 718 mmHg 70%
16:00 +24°C° 0.3 mm 1 m/S 718 mmHg 77%
17:00 +23°C° 0.3 mm 1 m/S 718 mmHg 81%
18:00 +22°C° 0.3 mm 1 m/S 718 mmHg 85%
19:00 +21°C° 0.3 mm 1 m/S 717 mmHg 89%
20:00 +20°C° 0.2 mm 1 m/S 718 mmHg 90%
21:00 +19°C° 0.2 mm 1 m/S 718 mmHg 92%
22:00 +18°C° 0.2 mm 1 m/S 719 mmHg 94%
23:00 +18°C° 0.7 mm 1 m/S 719 mmHg 95%

Morgen, 28 Juli, Mittwoch

Zeit Temperatur Niederschläge Wind Luftdruck Luftfeuchtigkeit
00:00 +18°C° 0.7 mm 1 m/S 719 mmHg 97%
01:00 +18°C° 0.7 mm 1 m/S 719 mmHg 98%
02:00 +18°C° 0.2 mm 1 m/S 719 mmHg 98%
03:00 +18°C° 0.2 mm 1 m/S 718 mmHg 97%
04:00 +18°C° 0.2 mm 1 m/S 718 mmHg 97%
05:00 +18°C° 0.1 mm 1 m/S 718 mmHg 97%
06:00 +18°C° 0.1 mm 1 m/S 719 mmHg 96%
07:00 +18°C° 0.1 mm 1 m/S 719 mmHg 96%
08:00 +19°C° 0.2 mm 1 m/S 719 mmHg 90%
09:00 +21°C° 0.2 mm 1 m/S 719 mmHg 84%
10:00 +22°C° 0.2 mm 1 m/S 719 mmHg 78%
11:00 +23°C° 0.3 mm 1 m/S 719 mmHg 74%
12:00 +24°C° 0.3 mm 2 m/S 719 mmHg 70%
13:00 +25°C° 0.3 mm 2 m/S 719 mmHg 66%
14:00 +25°C° 0.3 mm 2 m/S 719 mmHg 68%
15:00 +24°C° 0.3 mm 2 m/S 719 mmHg 69%
16:00 +24°C° 0.3 mm 2 m/S 719 mmHg 71%
17:00 +24°C° 0.1 mm 2 m/S 719 mmHg 76%
18:00 +23°C° 0.1 mm 1 m/S 719 mmHg 81%
19:00 +22°C° 0.1 mm 1 m/S 719 mmHg 87%
20:00 +21°C° 0.2 mm 1 m/S 719 mmHg 90%
21:00 +17°C° 0.2 mm 0 m/S 719 mmHg 93%
22:00 +16°C° 0.2 mm 0 m/S 719 mmHg 95%
23:00 +16°C° 0 mm 0 m/S 719 mmHg 95%

übermorgen, 29 Juli, Donnerstag

Zeit Temperatur Niederschläge Wind Luftdruck Luftfeuchtigkeit
00:00 +15°C° 0 mm 0 m/S 719 mmHg 96%
01:00 +15°C° 0 mm 0 m/S 718 mmHg 96%
02:00 +16°C° 0.1 mm 1 m/S 718 mmHg 96%
03:00 +16°C° 0.1 mm 1 m/S 718 mmHg 96%
04:00 +16°C° 0.1 mm 1 m/S 718 mmHg 96%
05:00 +16°C° 0.1 mm 1 m/S 718 mmHg 95%
06:00 +18°C° 0.1 mm 1 m/S 718 mmHg 94%
07:00 +19°C° 0.1 mm 1 m/S 719 mmHg 93%
08:00 +20°C° 0.1 mm 1 m/S 719 mmHg 90%
09:00 +21°C° 0.1 mm 1 m/S 719 mmHg 86%
10:00 +22°C° 0.1 mm 1 m/S 719 mmHg 83%
11:00 +23°C° 0.1 mm 1 m/S 719 mmHg 77%
12:00 +25°C° 0.1 mm 1 m/S 719 mmHg 71%
13:00 +26°C° 0.1 mm 2 m/S 719 mmHg 65%
14:00 +25°C° 1.6 mm 2 m/S 718 mmHg 73%
15:00 +24°C° 1.6 mm 2 m/S 718 mmHg 81%
16:00 +21°C° 1.6 mm 2 m/S 718 mmHg 89%
17:00 +22°C° 0.5 mm 1 m/S 718 mmHg 90%
18:00 +22°C° 0.5 mm 1 m/S 718 mmHg 91%
19:00 +19°C° 0.5 mm 0 m/S 718 mmHg 92%
20:00 +19°C° 1 mm 0 m/S 718 mmHg 94%
21:00 +18°C° 1 mm 0 m/S 718 mmHg 95%
22:00 +17°C° 1 mm 0 m/S 718 mmHg 97%
23:00 +17°C° 0.9 mm 0 m/S 718 mmHg 97%

30 Juli, Freitag

Zeit Temperatur Niederschläge Wind Luftdruck Luftfeuchtigkeit
00:00 +17°C° 0.9 mm 0 m/S 718 mmHg 97%
01:00 +16°C° 0.9 mm 0 m/S 718 mmHg 98%
02:00 +16°C° 0.4 mm 0 m/S 717 mmHg 98%
03:00 +16°C° 0.4 mm 0 m/S 717 mmHg 98%
04:00 +16°C° 0.4 mm 0 m/S 717 mmHg 98%
05:00 +16°C° 0.1 mm 0 m/S 717 mmHg 97%
06:00 +17°C° 0.1 mm 0 m/S 717 mmHg 97%
07:00 +17°C° 0.1 mm 0 m/S 717 mmHg 96%
08:00 +18°C° 0 mm 0 m/S 717 mmHg 90%
09:00 +22°C° 0 mm 1 m/S 717 mmHg 83%
10:00 +23°C° 0 mm 1 m/S 717 mmHg 77%
11:00 +23°C° 0.1 mm 1 m/S 717 mmHg 76%
12:00 +24°C° 0.1 mm 2 m/S 717 mmHg 75%
13:00 +24°C° 0.1 mm 2 m/S 717 mmHg 73%
14:00 +24°C° 0.4 mm 2 m/S 717 mmHg 73%
15:00 +24°C° 0.4 mm 2 m/S 717 mmHg 72%
16:00 +25°C° 0.4 mm 2 m/S 717 mmHg 72%
17:00 +24°C° 0.3 mm 2 m/S 717 mmHg 76%
18:00 +23°C° 0.3 mm 1 m/S 717 mmHg 80%
19:00 +22°C° 0.3 mm 1 m/S 717 mmHg 84%
20:00 +21°C° 0.1 mm 1 m/S 717 mmHg 87%
21:00 +19°C° 0.1 mm 1 m/S 717 mmHg 90%
22:00 +16°C° 0.1 mm 0 m/S 717 mmHg 93%
23:00 +16°C° 0.1 mm 0 m/S 717 mmHg 93%

31 Juli, Samstag

Zeit Temperatur Niederschläge Wind Luftdruck Luftfeuchtigkeit
00:00 +15°C° 0.1 mm 0 m/S 716 mmHg 94%
01:00 +15°C° 0.1 mm 0 m/S 716 mmHg 95%
02:00 +15°C° 0.2 mm 0 m/S 716 mmHg 96%
03:00 +14°C° 0.2 mm 0 m/S 716 mmHg 96%
04:00 +14°C° 0.2 mm 0 m/S 716 mmHg 96%
05:00 +15°C° 0.1 mm 0 m/S 716 mmHg 95%
06:00 +15°C° 0.1 mm 0 m/S 716 mmHg 95%
07:00 +18°C° 0.1 mm 1 m/S 716 mmHg 94%
08:00 +19°C° 0.3 mm 1 m/S 716 mmHg 88%
09:00 +20°C° 0.3 mm 2 m/S 716 mmHg 82%
10:00 +21°C° 0.3 mm 2 m/S 716 mmHg 76%
11:00 +21°C° 0.3 mm 3 m/S 716 mmHg 74%
12:00 +21°C° 0.3 mm 3 m/S 717 mmHg 71%
13:00 +22°C° 0.3 mm 3 m/S 717 mmHg 69%
14:00 +21°C° 0.4 mm 3 m/S 717 mmHg 71%
15:00 +21°C° 0.4 mm 3 m/S 717 mmHg 73%
16:00 +21°C° 0.4 mm 3 m/S 717 mmHg 75%
17:00 +20°C° 0.2 mm 3 m/S 717 mmHg 78%
18:00 +19°C° 0.2 mm 2 m/S 717 mmHg 81%
19:00 +18°C° 0.2 mm 2 m/S 718 mmHg 83%
20:00 +18°C° 0.1 mm 1 m/S 718 mmHg 86%
21:00 +16°C° 0.1 mm 1 m/S 718 mmHg 88%
22:00 +15°C° 0.1 mm 1 m/S 718 mmHg 91%
23:00 +15°C° 0 mm 1 m/S 718 mmHg 91%

1 August, Sonntag

Zeit Temperatur Niederschläge Wind Luftdruck Luftfeuchtigkeit
00:00 +13°C° 0 mm 0 m/S 717 mmHg 91%
01:00 +13°C° 0 mm 0 m/S 717 mmHg 91%
02:00 +13°C° 0 mm 0 m/S 717 mmHg 90%
03:00 +13°C° 0 mm 0 m/S 717 mmHg 90%
04:00 +12°C° 0 mm 0 m/S 716 mmHg 90%
05:00 +13°C° 0 mm 0 m/S 717 mmHg 89%
06:00 +13°C° 0 mm 0 m/S 717 mmHg 87%
07:00 +14°C° 0 mm 0 m/S 717 mmHg 86%
08:00 +15°C° 0.2 mm 0 m/S 717 mmHg 81%
09:00 +18°C° 0.2 mm 1 m/S 717 mmHg 76%
10:00 +19°C° 0.2 mm 1 m/S 717 mmHg 71%
11:00 +19°C° 0.3 mm 1 m/S 717 mmHg 70%
12:00 +20°C° 0.3 mm 1 m/S 717 mmHg 69%
13:00 +19°C° 0.3 mm 2 m/S 717 mmHg 68%
14:00 +19°C° 0.4 mm 2 m/S 717 mmHg 69%
15:00 +19°C° 0.4 mm 2 m/S 717 mmHg 70%
16:00 +19°C° 0.4 mm 2 m/S 717 mmHg 71%
17:00 +18°C° 0.4 mm 2 m/S 717 mmHg 77%
18:00 +17°C° 0.4 mm 2 m/S 717 mmHg 82%
19:00 +16°C° 0.4 mm 1 m/S 717 mmHg 88%
20:00 +15°C° 0.1 mm 1 m/S 718 mmHg 90%
21:00 +14°C° 0.1 mm 1 m/S 718 mmHg 92%
22:00 +13°C° 0.1 mm 1 m/S 719 mmHg 94%
23:00 +13°C° 0.1 mm 1 m/S 719 mmHg 95%
Mehr zeigen

Wir brauchen deine Erlaubnis

Meteoprog und unser Service Anbieter werden persönliche Daten aufbewahren, so wie Cookies, Geräte Bezeichnung oder ähnliche Technologien von deinem Gerät und Prozess, so wie Persönliche Daten Inhalte und Werbungen, genauso wie social Media und den Verkehr zu analysieren.

  • Aufbewahrung und/oder Zugang zu deiner Geräte Informationen.

    Cookies, Geräte Bezeichnung oder andere Informationen, können aufbewahrt oder Zugang zu deinem Gerät erhalten, für den Grund, der oben angegeben wird.

  • Personalisierte Werbung und Inhalte, Messungen, Einblick in das Publikum und Produkt Entwicklung.

    Werbungen und Inhalte können personalisiert werden, basierend auf ein Profil. Mehr Daten können besser personalisierte Werbungen und Inhalte hinzufügen. Werbung und Inhalte können gezeigt und gemessen werden. Einblicke über das Publikum, welche die Werbung gesehen haben und den Inhalt, können abgeleitet werden. So wie Daten können genutzt werden, um es zu verbessern oder die Benutzer Erfahrung zu verbessern das System und die Software.

Wenn du “Ich stimme zu” klickst, erlaubst du uns, die Cookies zu benutzen die Geräte Bezeichnung, den Web oder ähnliche Technologien zu benutzen. Deine Settings, können in deinem Gerät bei deinem Browser geändert werden.

Für den bestimmten Zweck, berechtigten Interessen beruhen darauf, mehr als auf den Inhalt. Du kannst mehr darüber in unseren Privaten und Cookie Politik lesen.